Location: Maccacari
(45.1333°N, 11.1333°E)
Time: 10:48:29
(UTC+00:00)

USA 234 - Visible Passes

Search period start: 17 January 2021 00:00
Search period end: 27 January 2021 00:00
Orbit: 1098 x 1110 km, 123.0° (Epoch: 09 January)

Date Brightness Start Highest point End Pass type
(mag) Time Alt. Az. Time Alt. Az. Time Alt. Az.
17 Jan 4.0 17:19:06 17° ENE 17:23:22 36° NNE 17:29:13 10° NW visible
17 Jan 3.3 19:06:27 66° N 19:06:27 66° N 19:12:18 10° NW visible
17 Jan 5.5 20:53:49 16° WNW 20:53:49 16° WNW 20:55:07 10° WNW visible
18 Jan 4.2 16:35:31 10° ENE 16:41:08 32° N 16:46:45 10° NW visible
18 Jan 3.6 18:21:59 42° NE 18:23:15 47° NNE 18:29:28 10° NW visible
18 Jan 4.6 20:09:19 32° WNW 20:09:19 32° WNW 20:12:37 10° NW visible
19 Jan 4.0 17:37:29 22° ENE 17:40:55 36° NNE 17:46:45 10° NW visible
19 Jan 3.7 19:24:49 54° NNW 19:24:49 54° NNW 19:29:51 10° NW visible
19 Jan 5.8 21:12:10 12° WNW 21:12:10 12° WNW 21:12:40 10° WNW visible
20 Jan 4.2 16:53:04 10° ENE 16:58:41 32° N 17:04:18 10° NW visible
20 Jan 3.5 18:40:19 47° NE 18:40:48 47° NNE 18:47:02 10° NW visible
20 Jan 5.0 20:27:40 25° WNW 20:27:40 25° WNW 20:30:11 10° NW visible
21 Jan 4.0 17:55:47 26° NE 17:58:27 36° NNE 18:04:19 10° NW visible
21 Jan 4.1 19:43:08 43° NW 19:43:08 43° NW 19:47:25 10° NW visible
22 Jan 4.2 17:11:15 13° ENE 17:16:14 32° N 17:21:51 10° NW visible
22 Jan 3.6 18:58:36 47° NNE 18:58:36 47° NNE 19:04:35 10° NW visible
22 Jan 5.3 20:45:56 20° WNW 20:45:56 20° WNW 20:47:44 10° NW visible
23 Jan 4.0 18:14:03 30° NE 18:16:00 36° NNE 18:21:51 10° NW visible
23 Jan 4.5 20:01:23 35° NW 20:01:23 35° NW 20:04:58 10° NW visible
24 Jan 4.3 17:29:29 16° NE 17:33:47 32° N 17:39:23 10° NW visible
24 Jan 3.8 19:16:50 45° N 19:16:50 45° N 19:22:07 10° NW visible
24 Jan 5.6 21:04:10 16° NW 21:04:10 16° NW 21:05:17 10° NW visible
25 Jan 4.3 16:45:56 10° NE 16:51:35 32° N 16:57:14 10° WNW visible
25 Jan 4.0 18:32:16 33° NE 18:33:33 36° NNE 18:39:24 10° NW visible
25 Jan 4.8 20:19:36 29° NW 20:19:36 29° NW 20:22:31 10° NW visible
26 Jan 4.3 17:47:41 19° NE 17:51:20 32° N 17:56:57 10° NW visible
26 Jan 4.1 19:35:02 41° NNW 19:35:02 41° NNW 19:39:41 10° NW visible
26 Jan 5.8 21:22:22 12° NW 21:22:22 12° NW 21:22:50 10° NW visible
